Regional Weather Roundup
Issued by NWS

Home | Current Version | Previous Version | Text Only | Print | Product List | Glossary Off
Versions: 1 2 3 4 5 6 7 8 9 10 11 12 13 14 15 16 17 18 19 20 21 22 23 24 25 26 27 28 29 30 31 32 33 34 35 36 37 38 39 40 41 42 43 44 45 46 47 48 49 50

000
ASUS43 KMKX 311000
RWRWI

WISCONSIN REGIONAL WEATHER ROUNDUP
NATIONAL WEATHER SERVICE MILWAUKEE/SULLIVAN WI
500 AM CDT FRI JUL 31 2015

NOTE: "FAIR" INDICATES FEW OR NO CLOUDS BELOW 12,000 FEET WITH NO
SIGNIFICANT WEATHER AND/OR OBSTRUCTIONS TO VISIBILITY.

WIZ001-002-006>008-014>016-023>028-311100-
NORTHWEST WISCONSIN

CITY           SKY/WX    TMP DP  RH WIND       PRES   REMARKS
SUPERIOR ARPT  CLEAR     64  55  72 W10       29.93R
ASHLAND        PTCLDY    57  55  93 SW7       29.90F
HAYWARD        PTCLDY    64  54  69 VRB5      29.96R
SIREN          CLEAR     62  55  76 W7        29.99R
CUMBERLAND     CLEAR     61  54  77 W9        29.99S
RICE LAKE      CLEAR     61  56  83 W6        30.00S
CHETEK         CLEAR     66  57  72 W7        29.98R
LADYSMITH      CLEAR     64  56  77 W7        29.97S
EAU CLAIRE     NOT AVBL
MENOMONIE      CLEAR     66  57  72 W9        30.00S
NEW RICHMOND   CLEAR     62  55  77 W7        30.02S
OSCEOLA        CLEAR     64  56  76 W8        30.04R
$$

WIZ003>005-009-010-017-018-311100-
NORTH CENTRAL WISCONSIN

CITY           SKY/WX    TMP DP  RH WIND       PRES   REMARKS
MANITOWISH WTR CLOUDY    59  56  91 W5        29.92S
ARBOR VITAE    MOCLDY    62  56  81 W5        29.93S
WOODRUFF       MOCLDY    62  56  81 W5        29.93S
RHINELANDER    CLOUDY    61  56  83 W9        29.94S
EAGLE RIVER    CLEAR     59  55  87 W6        29.92S
LAND O LAKES   CLEAR     58  54  88 W3        29.91F
PHILLIPS       PTCLDY    60  56  87 CALM      29.94S
TOMAHAWK       PTCLDY    59  55  87 W3        29.95S
MEDFORD        CLEAR     60  56  88 W6        29.96F
MERRILL        NOT AVBL
$$

WIZ029-030-035-036-043>047-311100-
CENTRAL WISCONSIN

CITY           SKY/WX    TMP DP  RH WIND       PRES   REMARKS
WAUSAU         CLEAR     65  57  75 NW12      29.93F
MOSINEE        CLEAR     61  57  88 W7        29.97S
MARSHFIELD     CLEAR     62  55  77 W7        29.97F
STEVENS POINT  CLEAR     63  56  79 W7        29.97S
WAUPACA        CLEAR     66  59  79 SW6       29.96S
WAUTOMA        NOT AVBL
WISC RAPIDS    CLEAR     62  57  83 W7        29.99S
CAMP DOUGLAS   NOT AVBL
$$

WIZ011>013-019>022-031-037>040-048>050-311100-
NORTHEAST WISCONSIN

CITY           SKY/WX    TMP DP  RH WIND       PRES   REMARKS
ANTIGO         CLEAR     56  55  95 W3        29.95S
SHAWANO        CLEAR     65  58  75 W5        29.93
OCONTO         CLEAR     63  59  87 W6        29.90S
STURGEON BAY   MOCLDY    64  55  72 W7        29.92S
GREEN BAY      CLEAR     65  58  78 W9        29.93S
MANITOWOC      NOT AVBL
APPLETON       CLEAR     63  55  77 W9        29.96S
CLINTONVILLE   CLEAR     64  55  72 W8        29.93S
OSHKOSH        CLEAR     68  57  68 W7        29.95F
$$

WIZ032>034-041-042-053>061-311100-
SOUTHWEST WISCONSIN

CITY           SKY/WX    TMP DP  RH WIND       PRES   REMARKS
LA CROSSE      CLEAR     65  61  87 E3        30.01R
SPARTA         CLEAR     56  54  92 CALM      30.01S
VIROQUA        CLEAR     62  60  96 W6        30.04S
BOSCOBEL       PTCLDY    61  59  93 CALM      30.03R
PRAIRIE DU CHI CLEAR     69  61  77 NW6       30.03R
PLATTEVILLE    MOCLDY    64  62  94 SW6       30.03S
$$

WIZ056-057-062-063-064-067-068-311100-
SOUTH CENTRAL WISCONSIN

CITY           SKY/WX    TMP DP  RH WIND       PRES   REMARKS
REEDSBURG      CLEAR     61  58  90 CALM      30.00S
BARABOO/DELLS  PTCLDY    64  56  76 CALM      30.00S
LONE ROCK      NOT AVBL
MINERAL POINT  HVY RAIN  66  61  82 W8        30.04R
MADISON        PTCLDY    68  57  68 CALM      29.99F
MIDDLETON      PTCLDY    65  58  76 W6        30.01F
WATERTOWN      CLEAR     61  61  99 CALM      29.99F
MONROE         PTCLDY    66  59  77 SW12      30.02F
JANESVILLE     CLEAR     63  55  77 S3        30.00F
$$

WIZ051-052-058>065-066-070>072-311100-
SOUTHEAST WISCONSIN

CITY           SKY/WX    TMP DP  RH WIND       PRES   REMARKS
MILWAUKEE      CLEAR     70  56  61 W3        29.98F
WAUKESHA       CLEAR     64  54  68 W5        30.00F
MILWAUKEE/TIMM CLEAR     64  54  68 SW5       29.99F
RACINE         CLEAR     67  56  67 W7        30.00F
BURLINGTON     CLEAR     59  55  87 S3        30.00F
KENOSHA        CLEAR     63  57  81 W5        30.00F
FOND DU LAC    PTCLDY    64  57  78 SW8       29.97S
SHEBOYGAN      CLEAR     62  57  83 SW7       29.95F
WEST BEND      PTCLDY    64  54  68 W3        29.98S
JUNEAU         PTCLDY    60  56  87 SW6       30.01R
$$

LSZ147-162-311100-
LAKE SUPERIOR

STATION/POSITION TIME  TEMP    WIND        PRES    WAVE
                       AIR SEA DIR/SP/G            HT/PER
                 (UTC) (F)     (DEG/KT/KT) (MB)    (FT/S)
W MID LAKE BUOY  0850   56 53  250/  8/ 10 1010.1S   1
DEVILS ISLAND    0900   62     240/ 15/ 17 1011.4F
PORT WING        0900   66     210/  5/  9 1012.9
SAXON HARBOR     0940   64                 1011.5F
$$

LMZ867-665-643>646-311100-
LAKE MICHIGAN

STATION/POSITION TIME  TEMP    WIND        PRES    WAVE
                       AIR SEA DIR/SP/G            HT/PER
                 (UTC) (F)     (DEG/KT/KT) (MB)    (FT/S)
CHAMBERS ISLAND  0900   66     220/  7/ 12 1011.5F
S GREEN BAY BUOY 0900   65 68  260/ 12/ 14 1013.7F
N MID LAKE BUOY  0850   69 68  260/ 14/ 16 1010.5S   2/ 4
NORTHPORT PIER   0900   69     270/  4/ 11 1011.5S
SISTER BAY       0914   69     290/ 18/ 20   N/A
ALGOMA LAKESHORE 0942          280/  2/  6   N/A
KEWAUNEE LAKESHO 0900   68     290/  3/  8 1012.4S
SHEBOYGAN LAKESH 0900   70     250/ 11/ 12 1014.1F
PORT WASHINGTON  0800   70     270/  7/  9 1015.6S
ATWATER BUOY     0900   71 62  250/ 12/ 16 1016.6F
MILWAUKEE LAKESH 0900   73     270/  9/ 12   N/A
KENOSHA   LAKESH 0900   72     270/  9/ 14 1015.6F
$$

TC  - TEMPERATURE IN CELSIUS
VSB - VISIBILITY IN STATUTE MILES
WCI - WIND CHILL INDEX
HX  - HEAT INDEX




USA.gov is the U.S. government's official web portal to all federal, state and local government web resources and services.